Location: Unspecified
(0.0000°N, 0.0000°E)
Time: 20:39:39
(UTC+02:00)

Ariane H10 - Visible Passes

Search period start: 22 July 2017 00:00
Search period end: 01 August 2017 00:00
Orbit: 388 x 35070 km, 4.4° (Epoch: 21 July)

Date Brightness Start Highest point End Pass type
(mag) Time Alt. Az. Time Alt. Az. Time Alt. Az.
22 Jul 7.1 00:39:18 10° W 02:26:53 67° W 10:21:17 10° E visible
22 Jul 6.9 21:05:18 10° W 21:21:19 81° S 06:51:14 10° E visible
23 Jul 9.2 21:43:25 10° E 01:28:57 31° E 03:00:20 10° E visible
25 Jul 6.7 01:09:51 10° W 02:55:43 57° W 10:48:41 10° E visible
25 Jul 7.4 21:33:06 10° W 21:54:57 82° S 07:19:45 10° E visible
26 Jul 6.1 18:05:29 10° W 01:56:41 41° E 03:35:54 10° E visible
28 Jul 6.2 01:41:33 10° W 03:24:11 47° W 11:15:59 10° E visible
28 Jul 7.8 22:01:05 10° W 22:32:25 84° S 07:47:53 10° E visible
29 Jul 6.6 18:32:44 10° W 02:24:50 50° E 04:08:44 10° E visible
31 Jul 5.7 02:15:04 10° W 03:52:11 38° W 11:43:11 10° E visible
